Location: ??????
(41.3747°N, 22.5491°E)
Time: 13:55:39
(UTC+00:00)

CZ-4B R/B - Pass Details

Date: 01 December 2020
Orbit: 389 x 458 km, 97.6° (Epoch: 20 January)

Event Time Altitude Azimuth Distance (km) Brightness Sun altitude
Exits shadow 16:55:47 10° 345° (NNW) 1,476 4.0 -21.0°
Reaches altitude 10° 16:55:49 10° 345° (NNW) 1,466 4.0 -21.0°
Maximum altitude 16:58:24 24° 289° (WNW) 889 3.5 -21.5°
Drops below altitude 10° 17:01:02 10° 233° (SW) 1,484 4.9 -21.9°
Sets 17:03:15 0° 219° (SW) 2,356 5.8 -22.4°
